• In Uzbekistan
  • List of Countries
  • For 7 days
  • Water Temperature
  • Weather Map
  • Weather Widgets
  • user-avatar
    Login

    Hourly Weather Paro

    Today, 25 January, Saturday

    Time Temperature Precipitation Wind Pressure Humidity
    00:00 -4°C° 0 mm 4 mps 556 mmHg 29%
    01:00 -4°C° 0 mm 4 mps 556 mmHg 28%
    02:00 -4°C° 0 mm 3 mps 555 mmHg 27%
    03:00 -5°C° 0 mm 3 mps 555 mmHg 27%
    04:00 -5°C° 0 mm 3 mps 555 mmHg 26%
    05:00 -5°C° 0 mm 3 mps 555 mmHg 25%
    06:00 -5°C° 0 mm 3 mps 555 mmHg 24%
    07:00 -1°C° 0 mm 2 mps 556 mmHg 23%
    08:00 +4°C° 0 mm 1 mps 558 mmHg 21%
    09:00 +7°C° 0 mm 1 mps 559 mmHg 19%
    10:00 +8°C° 0 mm 1 mps 560 mmHg 19%
    11:00 +9°C° 0 mm 2 mps 560 mmHg 19%
    12:00 +12°C° 0 mm 2 mps 561 mmHg 21%
    13:00 +10°C° 0 mm 2 mps 560 mmHg 27%
    14:00 +9°C° 0 mm 3 mps 559 mmHg 34%
    15:00 +9°C° 0 mm 3 mps 558 mmHg 41%
    16:00 +6°C° 0 mm 2 mps 556 mmHg 58%
    17:00 +4°C° 0 mm 1 mps 555 mmHg 75%
    18:00 0°C° 0 mm 0 mps 554 mmHg 91%
    19:00 +1°C° 0 mm 1 mps 554 mmHg 88%
    20:00 0°C° 0 mm 1 mps 554 mmHg 86%
    21:00 0°C° 0 mm 1 mps 554 mmHg 83%
    22:00 0°C° 0 mm 1 mps 554 mmHg 81%
    23:00 -1°C° 0 mm 1 mps 554 mmHg 80%

    Tomorrow, 26 January, Sunday

    Time Temperature Precipitation Wind Pressure Humidity
    00:00 -1°C° 0 mm 1 mps 553 mmHg 78%
    01:00 -3°C° 0 mm 2 mps 553 mmHg 75%
    02:00 -3°C° 0 mm 2 mps 553 mmHg 72%
    03:00 -3°C° 0 mm 2 mps 552 mmHg 69%
    04:00 -4°C° 0 mm 2 mps 552 mmHg 66%
    05:00 -4°C° 0 mm 2 mps 552 mmHg 62%
    06:00 -4°C° 0 mm 2 mps 552 mmHg 59%
    07:00 +1°C° 0 mm 1 mps 554 mmHg 52%
    08:00 +3°C° 0 mm 1 mps 555 mmHg 45%
    09:00 +5°C° 0 mm 0 mps 557 mmHg 39%
    10:00 +7°C° 0 mm 1 mps 557 mmHg 40%
    11:00 +7°C° 0 mm 2 mps 557 mmHg 41%
    12:00 +8°C° 0 mm 2 mps 557 mmHg 42%
    13:00 +7°C° 0.2 mm 2 mps 556 mmHg 51%
    14:00 +6°C° 0.2 mm 2 mps 555 mmHg 61%
    15:00 +5°C° 0.2 mm 2 mps 554 mmHg 70%
    16:00 +4°C° 0.3 mm 2 mps 554 mmHg 79%
    17:00 +3°C° 0.3 mm 1 mps 553 mmHg 88%
    18:00 +2°C° 0.3 mm 1 mps 552 mmHg 97%
    19:00 0°C° 0.1 mm 0 mps 552 mmHg 96%
    20:00 0°C° 0.1 mm 0 mps 552 mmHg 96%
    21:00 -1°C° 0.1 mm 0 mps 553 mmHg 95%
    22:00 -1°C° 0 mm 0 mps 552 mmHg 93%
    23:00 0°C° 0 mm 1 mps 552 mmHg 91%

    Day after tomorrow, 27 January, Monday

    Time Temperature Precipitation Wind Pressure Humidity
    00:00 -1°C° 0 mm 1 mps 552 mmHg 89%
    01:00 -1°C° 0 mm 1 mps 552 mmHg 87%
    02:00 -1°C° 0 mm 1 mps 551 mmHg 84%
    03:00 -1°C° 0 mm 1 mps 551 mmHg 82%
    04:00 -2°C° 0 mm 1 mps 551 mmHg 78%
    05:00 -2°C° 0 mm 1 mps 551 mmHg 74%
    06:00 -4°C° 0 mm 2 mps 551 mmHg 70%
    07:00 0°C° 0 mm 1 mps 552 mmHg 63%
    08:00 +3°C° 0 mm 1 mps 554 mmHg 57%
    09:00 +4°C° 0 mm 0 mps 556 mmHg 50%
    10:00 +6°C° 0 mm 1 mps 556 mmHg 53%
    11:00 +6°C° 0 mm 2 mps 556 mmHg 56%
    12:00 +7°C° 0 mm 2 mps 556 mmHg 59%
    13:00 +6°C° 0.1 mm 2 mps 555 mmHg 65%
    14:00 +6°C° 0.1 mm 2 mps 554 mmHg 71%
    15:00 +5°C° 0.1 mm 2 mps 554 mmHg 77%
    16:00 +4°C° 0.2 mm 2 mps 553 mmHg 84%
    17:00 +4°C° 0.2 mm 1 mps 552 mmHg 91%
    18:00 +2°C° 0.2 mm 1 mps 552 mmHg 98%
    19:00 +2°C° 0.2 mm 1 mps 552 mmHg 98%
    20:00 +1°C° 0.2 mm 0 mps 552 mmHg 97%
    21:00 +1°C° 0.2 mm 0 mps 553 mmHg 97%
    22:00 0°C° 0.2 mm 0 mps 553 mmHg 97%
    23:00 0°C° 0.2 mm 0 mps 553 mmHg 97%

    28 January, Tuesday

    Time Temperature Precipitation Wind Pressure Humidity
    00:00 0°C° 0.2 mm 0 mps 553 mmHg 97%
    01:00 -1°C° 0.1 mm 0 mps 552 mmHg 96%
    02:00 0°C° 0.1 mm 1 mps 551 mmHg 95%
    03:00 -1°C° 0.1 mm 1 mps 551 mmHg 94%
    04:00 -1°C° 0 mm 1 mps 551 mmHg 91%
    05:00 -1°C° 0 mm 1 mps 551 mmHg 88%
    06:00 -1°C° 0 mm 1 mps 551 mmHg 85%
    07:00 +1°C° 0 mm 1 mps 552 mmHg 78%
    08:00 +2°C° 0 mm 1 mps 553 mmHg 71%
    09:00 +3°C° 0 mm 0 mps 555 mmHg 64%
    10:00 +5°C° 0.1 mm 1 mps 555 mmHg 66%
    11:00 +5°C° 0.1 mm 2 mps 555 mmHg 68%
    12:00 +6°C° 0.1 mm 2 mps 556 mmHg 70%
    13:00 +6°C° 0.2 mm 2 mps 555 mmHg 75%
    14:00 +5°C° 0.2 mm 2 mps 554 mmHg 80%
    15:00 +5°C° 0.2 mm 2 mps 554 mmHg 85%
    16:00 +4°C° 0.2 mm 2 mps 553 mmHg 89%
    17:00 +3°C° 0.2 mm 1 mps 553 mmHg 94%
    18:00 +2°C° 0.2 mm 1 mps 552 mmHg 98%
    19:00 +1°C° 0.1 mm 0 mps 553 mmHg 97%
    20:00 0°C° 0.1 mm 0 mps 553 mmHg 96%
    21:00 0°C° 0.1 mm 0 mps 553 mmHg 95%
    22:00 0°C° 0 mm 1 mps 553 mmHg 94%
    23:00 0°C° 0 mm 1 mps 553 mmHg 92%

    29 January, Wednesday

    Time Temperature Precipitation Wind Pressure Humidity
    00:00 0°C° 0 mm 1 mps 553 mmHg 91%
    01:00 -1°C° 0 mm 1 mps 553 mmHg 90%
    02:00 -1°C° 0 mm 1 mps 553 mmHg 88%
    03:00 -1°C° 0 mm 1 mps 553 mmHg 87%
    04:00 -1°C° 0 mm 1 mps 553 mmHg 86%
    05:00 -1°C° 0 mm 1 mps 553 mmHg 84%
    06:00 -2°C° 0 mm 1 mps 553 mmHg 82%
    07:00 +1°C° 0 mm 1 mps 555 mmHg 76%
    08:00 +3°C° 0 mm 1 mps 556 mmHg 70%
    09:00 +4°C° 0 mm 0 mps 558 mmHg 64%
    10:00 +6°C° 0 mm 1 mps 558 mmHg 65%
    11:00 +7°C° 0 mm 1 mps 558 mmHg 65%
    12:00 +7°C° 0 mm 2 mps 559 mmHg 66%
    13:00 +7°C° 0.2 mm 2 mps 558 mmHg 70%
    14:00 +7°C° 0.2 mm 2 mps 557 mmHg 75%
    15:00 +6°C° 0.2 mm 2 mps 557 mmHg 79%
    16:00 +5°C° 0.1 mm 2 mps 556 mmHg 85%
    17:00 +4°C° 0.1 mm 1 mps 555 mmHg 91%
    18:00 +2°C° 0.1 mm 1 mps 555 mmHg 97%
    19:00 +2°C° 0.1 mm 1 mps 555 mmHg 96%
    20:00 +2°C° 0.1 mm 1 mps 555 mmHg 94%
    21:00 +1°C° 0.1 mm 1 mps 555 mmHg 93%
    22:00 +1°C° 0 mm 1 mps 555 mmHg 92%
    23:00 0°C° 0 mm 1 mps 555 mmHg 90%

    30 January, Thursday

    Time Temperature Precipitation Wind Pressure Humidity
    00:00 0°C° 0 mm 1 mps 554 mmHg 89%
    01:00 0°C° 0 mm 1 mps 554 mmHg 88%
    02:00 -2°C° 0 mm 2 mps 554 mmHg 87%
    03:00 -3°C° 0 mm 2 mps 554 mmHg 87%
    04:00 -3°C° 0 mm 2 mps 554 mmHg 85%
    05:00 -3°C° 0 mm 2 mps 553 mmHg 84%
    06:00 -4°C° 0 mm 2 mps 553 mmHg 83%
    07:00 +1°C° 0 mm 1 mps 555 mmHg 76%
    08:00 +3°C° 0 mm 1 mps 556 mmHg 70%
    09:00 +5°C° 0 mm 1 mps 558 mmHg 64%
    10:00 +6°C° 0.1 mm 1 mps 558 mmHg 65%
    11:00 +6°C° 0.1 mm 2 mps 558 mmHg 66%
    12:00 +5°C° 0.1 mm 3 mps 558 mmHg 68%
    13:00 +5°C° 0.3 mm 3 mps 557 mmHg 71%
    14:00 +5°C° 0.3 mm 3 mps 556 mmHg 75%
    15:00 +5°C° 0.3 mm 3 mps 556 mmHg 79%
    16:00 +4°C° 0.2 mm 2 mps 555 mmHg 85%
    17:00 +3°C° 0.2 mm 1 mps 554 mmHg 91%
    18:00 +2°C° 0.2 mm 1 mps 554 mmHg 98%
    19:00 +1°C° 0.1 mm 1 mps 554 mmHg 96%
    20:00 +1°C° 0.1 mm 1 mps 554 mmHg 95%
    21:00 0°C° 0.1 mm 1 mps 554 mmHg 93%
    22:00 0°C° 0 mm 1 mps 554 mmHg 92%
    23:00 0°C° 0 mm 1 mps 554 mmHg 91%
    Show more